Time,TemperatureF,DewpointF,PressureIn,WindDirection,WindDirectionDegrees,WindSpeedMPH,WindSpeedGustMPH,Humidity,HourlyPrecipIn,Conditions,Clouds,dailyrainin,SoftwareType,DateUTC
2013-04-04 00:02:00,38.8,29.2,30.07,South,175,8.0,11.0,68,0.00,,CLR,0.00,VWS V14.01,2013-04-04 05:02:00,
2013-04-04 00:07:00,38.9,28.9,30.07,South,184,8.0,14.0,67,0.00,,CLR,0.00,VWS V14.01,2013-04-04 05:07:00,
2013-04-04 00:12:00,39.2,29.2,30.07,SW,223,8.0,11.0,67,0.00,,CLR,0.00,VWS V14.01,2013-04-04 05:12:00,
2013-04-04 00:18:00,39.3,28.9,30.07,SSW,198,7.0,13.0,66,0.00,,CLR,0.00,VWS V14.01,2013-04-04 05:18:00,
2013-04-04 00:23:00,39.7,28.9,30.07,South,171,12.0,19.0,65,0.00,,CLR,0.00,VWS V14.01,2013-04-04 05:23:00,
2013-04-04 00:29:00,40.3,29.1,30.07,South,175,6.0,14.0,64,0.00,,CLR,0.00,VWS V14.01,2013-04-04 05:29:00,
2013-04-04 00:35:00,40.3,29.1,30.07,SSW,203,10.0,14.0,64,0.00,,CLR,0.00,VWS V14.01,2013-04-04 05:35:00,
2013-04-04 00:41:00,40.4,28.8,30.07,SSW,198,13.0,15.0,63,0.00,,CLR,0.00,VWS V14.01,2013-04-04 05:41:00,
2013-04-04 00:46:00,40.6,29.0,30.06,South,188,6.0,18.0,63,0.00,,CLR,0.00,VWS V14.01,2013-04-04 05:46:00,
2013-04-04 00:52:00,40.4,28.8,30.06,South,178,9.0,17.0,63,0.00,,CLR,0.00,VWS V14.01,2013-04-04 05:52:00,
2013-04-04 00:57:00,40.3,29.1,30.06,SW,227,8.0,10.0,64,0.00,,CLR,0.00,VWS V14.01,2013-04-04 05:57:00,
2013-04-04 01:03:00,40.1,28.9,30.07,SSW,200,9.0,12.0,64,0.00,,CLR,0.00,VWS V14.01,2013-04-04 06:03:00,
2013-04-04 01:09:00,40.0,28.8,30.07,SSE,158,15.0,16.0,64,0.00,,CLR,0.00,VWS V14.01,2013-04-04 06:09:00,
2013-04-04 01:14:00,40.0,28.8,30.07,SE,143,10.0,17.0,64,0.00,,CLR,0.00,VWS V14.01,2013-04-04 06:14:00,
2013-04-04 01:19:00,40.1,28.9,30.06,SW,224,7.0,15.0,64,0.00,,CLR,0.00,VWS V14.01,2013-04-04 06:19:00,
2013-04-04 01:25:00,40.1,29.3,30.06,SW,223,6.0,13.0,65,0.00,,CLR,0.00,VWS V14.01,2013-04-04 06:25:00,
2013-04-04 01:30:00,40.2,29.0,30.06,SW,216,5.0,10.0,64,0.00,,CLR,0.00,VWS V14.01,2013-04-04 06:30:00,
2013-04-04 01:36:00,40.1,29.3,30.06,SSW,196,5.0,13.0,65,0.00,,CLR,0.00,VWS V14.01,2013-04-04 06:36:00,
2013-04-04 01:41:00,40.1,29.3,30.07,SSW,200,3.0,14.0,65,0.00,,CLR,0.00,VWS V14.01,2013-04-04 06:41:00,
2013-04-04 01:47:00,40.1,29.3,30.07,SSW,195,4.0,7.0,65,0.00,,CLR,0.00,VWS V14.01,2013-04-04 06:47:00,
2013-04-04 01:52:00,40.0,29.6,30.07,WSW,246,4.0,14.0,66,0.00,,CLR,0.00,VWS V14.01,2013-04-04 06:52:00,
2013-04-04 01:57:00,39.8,29.4,30.07,South,190,12.0,17.0,66,0.00,,CLR,0.00,VWS V14.01,2013-04-04 06:57:00,
2013-04-04 02:02:00,39.8,29.4,30.07,SSW,196,11.0,17.0,66,0.00,,SCT110,0.00,VWS V14.01,2013-04-04 07:02:00,
2013-04-04 02:07:00,39.8,29.4,30.06,SSW,200,6.0,15.0,66,0.00,,SCT110,0.00,VWS V14.01,2013-04-04 07:07:00,
2013-04-04 02:13:00,39.9,29.5,30.06,South,182,9.0,16.0,66,0.00,,SCT110,0.00,VWS V14.01,2013-04-04 07:13:00,
2013-04-04 02:19:00,39.7,29.7,30.05,SE,146,9.0,12.0,67,0.00,,SCT110,0.00,VWS V14.01,2013-04-04 07:19:00,
2013-04-04 02:24:00,39.6,29.6,30.05,SSW,211,5.0,12.0,67,0.00,,SCT110,0.00,VWS V14.01,2013-04-04 07:24:00,
2013-04-04 02:30:00,39.5,29.8,30.05,SSW,205,5.0,13.0,68,0.00,,CLR,0.00,VWS V14.01,2013-04-04 07:30:00,
2013-04-04 02:35:00,39.4,29.7,30.05,SSW,198,5.0,13.0,68,0.00,,CLR,0.00,VWS V14.01,2013-04-04 07:35:00,
2013-04-04 02:40:00,39.5,29.8,30.05,SW,228,5.0,13.0,68,0.00,,BKN120,0.00,VWS V14.01,2013-04-04 07:40:00,
2013-04-04 02:46:00,39.4,29.7,30.06,SW,221,0.0,4.0,68,0.00,,BKN120,0.00,VWS V14.01,2013-04-04 07:46:00,
2013-04-04 02:52:00,39.0,30.1,30.06,SW,214,2.0,4.0,70,0.00,,BKN120,0.00,VWS V14.01,2013-04-04 07:52:00,
2013-04-04 02:57:00,38.8,29.9,30.06,SSW,207,4.0,6.0,70,0.00,,BKN120,0.00,VWS V14.01,2013-04-04 07:57:00,
2013-04-04 03:03:00,38.8,29.9,30.06,SW,222,5.0,6.0,70,0.00,,BKN110,0.00,VWS V14.01,2013-04-04 08:03:00,
2013-04-04 03:09:00,38.8,29.9,30.05,SSW,210,5.0,10.0,70,0.00,,BKN110,0.00,VWS V14.01,2013-04-04 08:09:00,
2013-04-04 03:15:00,38.9,30.0,30.04,South,179,9.0,9.0,70,0.00,,BKN110,0.00,VWS V14.01,2013-04-04 08:15:00,
2013-04-04 03:20:00,38.8,29.9,30.05,South,181,0.0,8.0,70,0.00,,BKN110,0.00,VWS V14.01,2013-04-04 08:20:00,
2013-04-04 03:25:00,38.6,30.0,30.04,SW,229,3.0,8.0,71,0.00,,SCT110,0.00,VWS V14.01,2013-04-04 08:25:00,
2013-04-04 03:30:00,38.5,29.9,30.04,South,190,6.0,6.0,71,0.00,,SCT110,0.00,VWS V14.01,2013-04-04 08:30:00,
2013-04-04 03:35:00,38.4,29.8,30.04,SSW,212,4.0,7.0,71,0.00,,SCT110,0.00,VWS V14.01,2013-04-04 08:35:00,
2013-04-04 03:40:00,38.3,30.1,30.04,SSW,200,5.0,5.0,72,0.00,,CLR,0.00,VWS V14.01,2013-04-04 08:40:00,
2013-04-04 03:46:00,38.1,29.9,30.04,South,180,6.0,11.0,72,0.00,,CLR,0.00,VWS V14.01,2013-04-04 08:46:00,
2013-04-04 03:52:00,37.9,30.0,30.04,SSW,213,2.0,9.0,73,0.00,,CLR,0.00,VWS V14.01,2013-04-04 08:52:00,
2013-04-04 03:57:00,37.9,30.0,30.03,SSW,194,1.0,7.0,73,0.00,,CLR,0.00,VWS V14.01,2013-04-04 08:57:00,
2013-04-04 04:02:00,37.9,30.0,30.03,South,175,6.0,10.0,73,0.00,,SCT120,0.00,VWS V14.01,2013-04-04 09:02:00,
2013-04-04 04:08:00,37.7,30.2,30.04,SSW,208,4.0,5.0,74,0.00,,SCT120,0.00,VWS V14.01,2013-04-04 09:08:00,
2013-04-04 04:13:00,37.6,30.1,30.04,SSW,213,0.0,7.0,74,0.00,,SCT120,0.00,VWS V14.01,2013-04-04 09:13:00,
2013-04-04 04:19:00,37.4,30.2,30.04,SW,223,0.0,3.0,75,0.00,,SCT120,0.00,VWS V14.01,2013-04-04 09:19:00,
2013-04-04 04:25:00,37.3,30.1,30.03,WSW,242,1.0,5.0,75,0.00,,SCT120,0.00,VWS V14.01,2013-04-04 09:25:00,
2013-04-04 04:30:00,37.5,30.3,30.03,SSW,194,4.0,11.0,75,0.00,,SCT120,0.00,VWS V14.01,2013-04-04 09:30:00,
2013-04-04 04:36:00,37.5,30.3,30.03,South,171,4.0,4.0,75,0.00,,SCT120,0.00,VWS V14.01,2013-04-04 09:36:00,
2013-04-04 04:42:00,37.4,30.5,30.03,West,262,5.0,5.0,76,0.00,,SCT120,0.00,VWS V14.01,2013-04-04 09:42:00,
2013-04-04 04:47:00,37.4,30.5,30.03,West,267,3.0,5.0,76,0.00,,SCT120,0.00,VWS V14.01,2013-04-04 09:47:00,
2013-04-04 04:52:00,37.4,30.5,30.03,West,273,0.0,3.0,76,0.00,,SCT120,0.00,VWS V14.01,2013-04-04 09:52:00,
2013-04-04 04:58:00,37.4,30.5,30.03,WSW,251,0.0,3.0,76,0.00,,SCT120,0.00,VWS V14.01,2013-04-04 09:58:00,
2013-04-04 05:04:00,37.3,30.8,30.03,SW,234,0.0,2.0,77,0.00,,BKN110,0.00,VWS V14.01,2013-04-04 10:04:00,
2013-04-04 05:09:00,37.1,30.6,30.03,SW,230,0.0,2.0,77,0.00,,BKN110,0.00,VWS V14.01,2013-04-04 10:09:00,
2013-04-04 05:14:00,37.0,30.5,30.03,WSW,252,0.0,0.0,77,0.00,,BKN110,0.00,VWS V14.01,2013-04-04 10:14:00,
2013-04-04 05:19:00,36.8,30.6,30.03,SW,230,0.0,0.0,78,0.00,,BKN110,0.00,VWS V14.01,2013-04-04 10:19:00,
2013-04-04 05:24:00,36.5,30.3,30.03,WSW,252,0.0,3.0,78,0.00,,OVC120,0.00,VWS V14.01,2013-04-04 10:24:00,
2013-04-04 05:30:00,36.4,30.2,30.02,WSW,248,0.0,0.0,78,0.00,,OVC120,0.00,VWS V14.01,2013-04-04 10:30:00,
2013-04-04 05:35:00,36.4,30.5,30.02,West,269,0.0,1.0,79,0.00,,OVC120,0.00,VWS V14.01,2013-04-04 10:35:00,
2013-04-04 05:40:00,36.5,30.6,30.02,SSW,210,3.0,5.0,79,0.00,,OVC120,0.00,VWS V14.01,2013-04-04 10:40:00,
2013-04-04 05:46:00,36.8,30.6,30.02,SW,233,2.0,3.0,78,0.00,,BKN110,0.00,VWS V14.01,2013-04-04 10:46:00,
2013-04-04 05:51:00,36.9,30.7,30.02,SW,214,1.0,4.0,78,0.00,,BKN110,0.00,VWS V14.01,2013-04-04 10:51:00,
2013-04-04 05:57:00,37.1,30.9,30.02,SW,217,3.0,5.0,78,0.00,,BKN110,0.00,VWS V14.01,2013-04-04 10:57:00,
2013-04-04 06:02:00,37.3,30.8,30.01,WSW,238,0.0,6.0,77,0.00,,SCT110,0.00,VWS V14.01,2013-04-04 11:02:00,
2013-04-04 06:08:00,37.3,30.8,30.02,SW,227,0.0,4.0,77,0.00,,SCT110,0.00,VWS V14.01,2013-04-04 11:08:00,
2013-04-04 06:13:00,37.4,30.5,30.02,SW,216,2.0,3.0,76,0.00,,SCT110,0.00,VWS V14.01,2013-04-04 11:13:00,
2013-04-04 06:19:00,37.4,30.5,30.01,SSW,206,4.0,6.0,76,0.00,,SCT110,0.00,VWS V14.01,2013-04-04 11:19:00,
2013-04-04 06:24:00,37.4,30.9,30.01,SW,234,1.0,2.0,77,0.00,,CLR,0.00,VWS V14.01,2013-04-04 11:24:00,
2013-04-04 06:29:00,37.3,30.8,30.01,SW,228,0.0,3.0,77,0.00,,CLR,0.00,VWS V14.01,2013-04-04 11:29:00,
2013-04-04 06:35:00,37.3,30.8,30.01,SW,235,0.0,2.0,77,0.00,,CLR,0.00,VWS V14.01,2013-04-04 11:35:00,
2013-04-04 06:41:00,37.3,30.8,30.01,SW,219,0.0,1.0,77,0.00,,SCT110,0.00,VWS V14.01,2013-04-04 11:41:00,
2013-04-04 06:46:00,37.3,31.1,30.01,SW,231,0.0,3.0,78,0.00,,SCT110,0.00,VWS V14.01,2013-04-04 11:46:00,
2013-04-04 06:52:00,37.3,30.8,30.01,West,281,0.0,7.0,77,0.00,,SCT110,0.00,VWS V14.01,2013-04-04 11:52:00,
2013-04-04 06:57:00,37.3,31.1,30.01,SW,231,0.0,1.0,78,0.00,,SCT110,0.00,VWS V14.01,2013-04-04 11:57:00,
2013-04-04 07:02:00,37.2,31.0,30.01,SSW,211,0.0,2.0,78,0.00,,RA,0.00,VWS V14.01,2013-04-04 12:02:00,
2013-04-04 07:08:00,37.3,31.1,30.02,West,267,0.0,0.0,78,0.00,,RA,0.00,VWS V14.01,2013-04-04 12:08:00,
2013-04-04 07:13:00,37.2,31.0,30.02,SW,234,0.0,2.0,78,0.00,,RA,0.00,VWS V14.01,2013-04-04 12:13:00,
2013-04-04 07:18:00,37.1,30.9,30.02,West,266,2.0,5.0,78,0.00,,RA,0.00,VWS V14.01,2013-04-04 12:18:00,
2013-04-04 07:23:00,37.2,31.0,30.02,SW,234,3.0,3.0,78,0.00,,BKN100,0.00,VWS V14.01,2013-04-04 12:23:00,
2013-04-04 07:29:00,37.2,31.0,30.03,West,260,1.0,4.0,78,0.00,,BKN100,0.00,VWS V14.01,2013-04-04 12:29:00,
2013-04-04 07:35:00,37.4,31.2,30.03,West,260,5.0,5.0,78,0.00,,BKN100,0.00,VWS V14.01,2013-04-04 12:35:00,
2013-04-04 07:40:00,37.5,31.3,30.03,WSW,258,2.0,6.0,78,0.00,,BKN100,0.00,VWS V14.01,2013-04-04 12:40:00,
2013-04-04 07:45:00,37.5,31.3,30.03,WSW,257,0.0,3.0,78,0.00,,BKN100,0.00,VWS V14.01,2013-04-04 12:45:00,
2013-04-04 07:50:00,37.5,31.6,30.03,West,259,4.0,5.0,79,0.00,,BKN100,0.00,VWS V14.01,2013-04-04 12:50:00,
2013-04-04 07:56:00,37.6,31.7,30.04,West,281,5.0,7.0,79,0.00,,BKN100,0.00,VWS V14.01,2013-04-04 12:56:00,
2013-04-04 08:01:00,37.5,32.5,30.04,WSW,254,2.0,4.0,82,0.00,,BKN100,0.00,VWS V14.01,2013-04-04 13:01:00,
2013-04-04 08:06:00,37.1,32.4,30.04,West,261,3.0,5.0,83,0.00,,BKN100,0.00,VWS V14.01,2013-04-04 13:06:00,
2013-04-04 08:11:00,36.9,32.2,30.04,West,259,3.0,8.0,83,0.00,,BKN100,0.00,VWS V14.01,2013-04-04 13:11:00,
2013-04-04 08:17:00,36.9,32.5,30.04,West,272,4.0,7.0,84,0.00,,BKN100,0.00,VWS V14.01,2013-04-04 13:17:00,
2013-04-04 08:22:00,36.8,32.4,30.04,West,274,5.0,5.0,84,0.00,,SCT100,0.00,VWS V14.01,2013-04-04 13:22:00,
2013-04-04 08:27:00,36.7,32.3,30.04,WSW,256,5.0,5.0,84,0.00,,SCT100,0.00,VWS V14.01,2013-04-04 13:27:00,
2013-04-04 08:32:00,36.6,32.5,30.04,WSW,256,0.0,5.0,85,0.00,,SCT100,0.00,VWS V14.01,2013-04-04 13:32:00,
2013-04-04 08:37:00,36.6,32.5,30.04,West,265,4.0,5.0,85,0.00,,SCT100,0.00,VWS V14.01,2013-04-04 13:37:00,
2013-04-04 08:42:00,36.5,32.7,30.04,WSW,250,2.0,3.0,86,0.00,,CLR,0.00,VWS V14.01,2013-04-04 13:42:00,
2013-04-04 08:48:00,36.6,33.1,30.04,WSW,244,0.0,4.0,87,0.00,,CLR,0.00,VWS V14.01,2013-04-04 13:48:00,
2013-04-04 08:53:00,37.0,33.5,30.04,WSW,257,3.0,6.0,87,0.00,,CLR,0.00,VWS V14.01,2013-04-04 13:53:00,
2013-04-04 08:58:00,37.4,35.3,30.04,West,273,6.0,6.0,92,0.00,,CLR,0.00,VWS V14.01,2013-04-04 13:58:00,
2013-04-04 09:03:00,37.7,33.9,30.04,West,267,1.0,7.0,86,0.00,,CLR,0.00,VWS V14.01,2013-04-04 14:03:00,
2013-04-04 09:08:00,37.7,33.9,30.04,West,274,3.0,6.0,86,0.00,,CLR,0.00,VWS V14.01,2013-04-04 14:08:00,
2013-04-04 09:13:00,37.5,34.0,30.05,WNW,282,5.0,10.0,87,0.00,,CLR,0.00,VWS V14.01,2013-04-04 14:13:00,
2013-04-04 09:19:00,37.5,34.0,30.05,West,267,7.0,7.0,87,0.00,,CLR,0.00,VWS V14.01,2013-04-04 14:19:00,
2013-04-04 09:25:00,37.4,33.9,30.04,WNW,295,5.0,9.0,87,0.00,,SCT090,0.00,VWS V14.01,2013-04-04 14:25:00,
2013-04-04 09:30:00,37.2,33.7,30.05,West,270,3.0,8.0,87,0.00,,SCT090,0.00,VWS V14.01,2013-04-04 14:30:00,
2013-04-04 09:35:00,37.1,33.9,30.05,West,279,0.0,7.0,88,0.00,,SCT090,0.00,VWS V14.01,2013-04-04 14:35:00,
2013-04-04 09:40:00,37.2,34.0,30.04,NW,321,2.0,2.0,88,0.00,,SCT100,0.00,VWS V14.01,2013-04-04 14:40:00,
2013-04-04 09:46:00,37.3,34.1,30.05,NW,323,4.0,5.0,88,0.00,,SCT100,0.00,VWS V14.01,2013-04-04 14:46:00,
2013-04-04 09:52:00,37.9,34.7,30.04,NW,309,0.0,5.0,88,0.00,,SCT100,0.00,VWS V14.01,2013-04-04 14:52:00,
2013-04-04 09:57:00,38.2,34.4,30.05,NW,314,5.0,10.0,86,0.00,,SCT100,0.00,VWS V14.01,2013-04-04 14:57:00,
2013-04-04 10:03:00,38.9,34.8,30.05,WNW,297,0.0,2.0,85,0.00,,SCT100,0.00,VWS V14.01,2013-04-04 15:03:00,
2013-04-04 10:08:00,39.1,34.4,30.05,WNW,284,0.0,3.0,83,0.00,,SCT100,0.00,VWS V14.01,2013-04-04 15:08:00,
2013-04-04 10:13:00,38.6,33.9,30.05,WNW,302,0.0,2.0,83,0.00,,SCT100,0.00,VWS V14.01,2013-04-04 15:13:00,
2013-04-04 10:18:00,38.2,33.5,30.05,NW,310,1.0,5.0,83,0.00,,SCT100,0.00,VWS V14.01,2013-04-04 15:18:00,
2013-04-04 10:24:00,38.4,34.0,30.05,WNW,302,1.0,4.0,84,0.00,,SCT100,0.00,VWS V14.01,2013-04-04 15:24:00,
2013-04-04 10:29:00,38.8,34.4,30.05,WNW,294,0.0,7.0,84,0.00,,SCT100,0.00,VWS V14.01,2013-04-04 15:29:00,
2013-04-04 10:35:00,39.1,34.4,30.05,West,268,0.0,5.0,83,0.00,,SCT100,0.00,VWS V14.01,2013-04-04 15:35:00,
2013-04-04 10:40:00,39.5,34.5,30.05,WSW,256,9.0,9.0,82,0.00,,SCT100,0.00,VWS V14.01,2013-04-04 15:40:00,
2013-04-04 10:45:00,39.7,34.7,30.06,WNW,295,0.0,6.0,82,0.00,,CLR,0.00,VWS V14.01,2013-04-04 15:45:00,
2013-04-04 10:51:00,40.3,35.2,30.06,NW,316,1.0,4.0,82,0.00,,CLR,0.00,VWS V14.01,2013-04-04 15:51:00,
2013-04-04 10:56:00,40.6,34.9,30.06,West,273,0.0,1.0,80,0.00,,CLR,0.00,VWS V14.01,2013-04-04 15:56:00,
2013-04-04 11:02:00,41.2,35.2,30.06,West,268,5.0,6.0,79,0.00,,CLR,0.00,VWS V14.01,2013-04-04 16:02:00,
2013-04-04 11:07:00,41.7,35.0,30.06,NW,308,3.0,3.0,77,0.00,,CLR,0.00,VWS V14.01,2013-04-04 16:07:00,
2013-04-04 11:13:00,42.0,35.3,30.06,NW,324,6.0,6.0,77,0.00,,CLR,0.00,VWS V14.01,2013-04-04 16:13:00,
2013-04-04 11:18:00,42.2,35.2,30.06,WNW,300,1.0,7.0,76,0.00,,CLR,0.00,VWS V14.01,2013-04-04 16:18:00,
2013-04-04 11:23:00,42.5,35.2,30.06,NW,321,0.0,5.0,75,0.00,,CLR,0.00,VWS V14.01,2013-04-04 16:23:00,
2013-04-04 11:30:00,42.9,35.9,30.06,NW,311,1.0,3.0,76,0.00,,CLR,0.00,VWS V14.01,2013-04-04 16:30:00,
2013-04-04 11:35:00,43.1,35.4,30.06,WNW,300,1.0,3.0,74,0.00,,CLR,0.00,VWS V14.01,2013-04-04 16:35:00,
2013-04-04 11:41:00,43.1,35.4,30.06,NW,309,0.0,3.0,74,0.00,,CLR,0.00,VWS V14.01,2013-04-04 16:41:00,
2013-04-04 11:46:00,43.4,35.7,30.06,WSW,250,3.0,5.0,74,0.00,,CLR,0.00,VWS V14.01,2013-04-04 16:46:00,
2013-04-04 11:51:00,43.8,36.1,30.06,West,271,0.0,5.0,74,0.00,,CLR,0.00,VWS V14.01,2013-04-04 16:51:00,
2013-04-04 11:56:00,44.1,35.7,30.06,NW,317,0.0,1.0,72,0.00,,CLR,0.00,VWS V14.01,2013-04-04 16:56:00,
2013-04-04 12:02:00,44.4,36.0,30.06,West,265,0.0,10.0,72,0.00,,SCT110,0.00,VWS V14.01,2013-04-04 17:02:00,
2013-04-04 12:07:00,44.2,35.4,30.06,NW,310,3.0,6.0,71,0.00,,SCT110,0.00,VWS V14.01,2013-04-04 17:07:00,
2013-04-04 12:12:00,44.3,35.9,30.07,West,281,3.0,3.0,72,0.00,,SCT110,0.00,VWS V14.01,2013-04-04 17:12:00,
2013-04-04 12:17:00,44.5,36.0,30.07,NW,319,0.0,2.0,72,0.00,,SCT110,0.00,VWS V14.01,2013-04-04 17:17:00,
2013-04-04 12:22:00,44.8,36.0,30.07,WNW,297,0.0,6.0,71,0.00,,SCT110,0.00,VWS V14.01,2013-04-04 17:22:00,
2013-04-04 12:28:00,45.2,36.4,30.07,West,267,2.0,3.0,71,0.00,,SCT110,0.00,VWS V14.01,2013-04-04 17:28:00,
2013-04-04 12:33:00,45.2,36.0,30.07,WNW,284,4.0,7.0,70,0.00,,SCT110,0.00,VWS V14.01,2013-04-04 17:33:00,
2013-04-04 12:38:00,45.1,35.5,30.07,NW,321,3.0,3.0,69,0.00,,SCT110,0.00,VWS V14.01,2013-04-04 17:38:00,
2013-04-04 12:44:00,45.4,35.8,30.07,WNW,294,1.0,5.0,69,0.00,,SCT100,0.00,VWS V14.01,2013-04-04 17:44:00,
2013-04-04 12:50:00,45.4,35.1,30.07,West,263,8.0,8.0,67,0.00,,SCT100,0.00,VWS V14.01,2013-04-04 17:50:00,
2013-04-04 12:55:00,45.5,35.9,30.07,WNW,293,1.0,9.0,69,0.00,,SCT100,0.00,VWS V14.01,2013-04-04 17:55:00,
2013-04-04 13:01:00,45.8,35.1,30.07,West,273,4.0,7.0,66,0.00,,CLR,0.00,VWS V14.01,2013-04-04 18:01:00,
2013-04-04 13:06:00,45.9,34.8,30.07,NW,324,2.0,4.0,65,0.00,,CLR,0.00,VWS V14.01,2013-04-04 18:06:00,
2013-04-04 13:12:00,45.7,34.2,30.07,West,273,0.0,8.0,64,0.00,,CLR,0.00,VWS V14.01,2013-04-04 18:12:00,
2013-04-04 13:17:00,46.1,34.6,30.07,North,355,0.0,4.0,64,0.00,,CLR,0.00,VWS V14.01,2013-04-04 18:17:00,
2013-04-04 13:22:00,46.5,35.0,30.07,West,261,1.0,3.0,64,0.00,,CLR,0.00,VWS V14.01,2013-04-04 18:22:00,
2013-04-04 13:28:00,46.9,34.6,30.07,NW,324,0.0,1.0,62,0.00,,CLR,0.00,VWS V14.01,2013-04-04 18:28:00,
2013-04-04 13:35:00,47.3,33.3,30.07,NNW,329,0.0,2.0,58,0.00,,CLR,0.00,VWS V14.01,2013-04-04 18:35:00,
2013-04-04 13:40:00,47.5,33.9,30.07,WNW,300,0.0,4.0,59,0.00,,CLR,0.00,VWS V14.01,2013-04-04 18:40:00,
2013-04-04 13:45:00,47.6,33.1,30.07,NW,309,1.0,8.0,57,0.00,,CLR,0.00,VWS V14.01,2013-04-04 18:45:00,
2013-04-04 13:50:00,48.4,33.4,30.07,NW,309,0.0,5.0,56,0.00,,CLR,0.00,VWS V14.01,2013-04-04 18:50:00,
2013-04-04 13:55:00,48.2,32.3,30.06,NW,311,0.0,0.0,54,0.00,,CLR,0.00,VWS V14.01,2013-04-04 18:55:00,
2013-04-04 14:01:00,48.0,31.2,30.07,WNW,294,0.0,6.0,52,0.00,,CLR,0.00,VWS V14.01,2013-04-04 19:01:00,
2013-04-04 14:07:00,48.0,32.2,30.07,NW,323,1.0,4.0,54,0.00,,CLR,0.00,VWS V14.01,2013-04-04 19:07:00,
2013-04-04 14:12:00,47.9,31.6,30.07,NNE,27,0.0,5.0,53,0.00,,CLR,0.00,VWS V14.01,2013-04-04 19:12:00,
2013-04-04 14:17:00,48.1,30.8,30.06,NW,323,0.0,6.0,51,0.00,,CLR,0.00,VWS V14.01,2013-04-04 19:17:00,
2013-04-04 14:23:00,47.9,30.7,30.06,West,277,1.0,6.0,51,0.00,,CLR,0.00,VWS V14.01,2013-04-04 19:23:00,
2013-04-04 14:28:00,48.1,30.8,30.06,NW,306,5.0,5.0,51,0.00,,CLR,0.00,VWS V14.01,2013-04-04 19:28:00,
2013-04-04 14:34:00,48.3,30.0,30.06,North,355,1.0,5.0,49,0.00,,CLR,0.00,VWS V14.01,2013-04-04 19:34:00,
2013-04-04 14:39:00,48.4,29.6,30.07,NW,321,2.0,4.0,48,0.00,,CLR,0.00,VWS V14.01,2013-04-04 19:39:00,
2013-04-04 14:45:00,47.9,30.2,30.07,WNW,285,7.0,11.0,50,0.00,,CLR,0.00,VWS V14.01,2013-04-04 19:45:00,
2013-04-04 14:50:00,47.7,30.0,30.07,West,276,2.0,7.0,50,0.00,,CLR,0.00,VWS V14.01,2013-04-04 19:50:00,
2013-04-04 14:55:00,47.9,28.1,30.07,NW,323,4.0,13.0,46,0.00,,CLR,0.00,VWS V14.01,2013-04-04 19:55:00,
2013-04-04 15:01:00,48.3,29.5,30.07,NW,312,1.0,8.0,48,0.00,,CLR,0.00,VWS V14.01,2013-04-04 20:01:00,
2013-04-04 15:06:00,48.5,30.2,30.07,NNW,335,0.0,2.0,49,0.00,,CLR,0.00,VWS V14.01,2013-04-04 20:06:00,
2013-04-04 15:11:00,48.3,29.5,30.07,West,276,4.0,12.0,48,0.00,,CLR,0.00,VWS V14.01,2013-04-04 20:11:00,
2013-04-04 15:17:00,48.3,29.0,30.07,NW,321,0.0,1.0,47,0.00,,CLR,0.00,VWS V14.01,2013-04-04 20:17:00,
2013-04-04 15:22:00,48.7,29.9,30.07,WNW,302,5.0,5.0,48,0.00,,CLR,0.00,VWS V14.01,2013-04-04 20:22:00,
2013-04-04 15:27:00,48.8,29.5,30.07,WNW,300,0.0,5.0,47,0.00,,CLR,0.00,VWS V14.01,2013-04-04 20:27:00,
2013-04-04 15:32:00,48.6,29.3,30.07,WNW,302,6.0,8.0,47,0.00,,CLR,0.00,VWS V14.01,2013-04-04 20:32:00,
2013-04-04 15:37:00,48.6,30.3,30.07,WSW,248,0.0,6.0,49,0.00,,CLR,0.00,VWS V14.01,2013-04-04 20:37:00,
2013-04-04 15:43:00,48.2,29.5,30.07,West,275,0.0,3.0,48,0.00,,CLR,0.00,VWS V14.01,2013-04-04 20:43:00,
2013-04-04 15:48:00,47.9,29.7,30.07,NNW,329,9.0,9.0,49,0.00,,CLR,0.00,VWS V14.01,2013-04-04 20:48:00,
2013-04-04 15:53:00,47.8,30.1,30.07,NNW,344,0.0,4.0,50,0.00,,CLR,0.00,VWS V14.01,2013-04-04 20:53:00,
2013-04-04 15:58:00,47.9,29.7,30.07,NW,308,0.0,3.0,49,0.00,,CLR,0.00,VWS V14.01,2013-04-04 20:58:00,
2013-04-04 16:03:00,48.5,30.7,30.06,WNW,283,4.0,7.0,50,0.00,,CLR,0.00,VWS V14.01,2013-04-04 21:03:00,
2013-04-04 16:08:00,48.3,30.5,30.06,WNW,302,0.0,6.0,50,0.00,,CLR,0.00,VWS V14.01,2013-04-04 21:08:00,
2013-04-04 16:15:00,48.3,30.0,30.06,NNW,327,1.0,5.0,49,0.00,,CLR,0.00,VWS V14.01,2013-04-04 21:15:00,
2013-04-04 16:21:00,48.1,30.4,30.06,NNW,331,5.0,5.0,50,0.00,,CLR,0.00,VWS V14.01,2013-04-04 21:21:00,
2013-04-04 16:26:00,48.3,30.5,30.06,North,11,0.0,2.0,50,0.00,,CLR,0.00,VWS V14.01,2013-04-04 21:26:00,
2013-04-04 16:31:00,48.6,30.8,30.06,WNW,296,0.0,10.0,50,0.00,,CLR,0.00,VWS V14.01,2013-04-04 21:31:00,
2013-04-04 16:37:00,48.6,30.3,30.06,West,271,2.0,4.0,49,0.00,,CLR,0.00,VWS V14.01,2013-04-04 21:37:00,
2013-04-04 16:42:00,48.1,29.4,30.06,NW,319,2.0,9.0,48,0.00,,CLR,0.00,VWS V14.01,2013-04-04 21:42:00,
2013-04-04 16:47:00,48.0,29.8,30.06,NW,321,0.0,7.0,49,0.00,,CLR,0.00,VWS V14.01,2013-04-04 21:47:00,
2013-04-04 16:52:00,48.0,30.3,30.06,NW,319,0.0,5.0,50,0.00,,CLR,0.00,VWS V14.01,2013-04-04 21:52:00,
2013-04-04 16:57:00,47.9,30.7,30.06,NW,313,1.0,5.0,51,0.00,,CLR,0.00,VWS V14.01,2013-04-04 21:57:00,
2013-04-04 17:02:00,47.6,29.9,30.06,NW,310,0.0,5.0,50,0.00,,CLR,0.00,VWS V14.01,2013-04-04 22:02:00,
2013-04-04 17:07:00,47.7,30.0,30.06,NW,322,1.0,3.0,50,0.00,,CLR,0.00,VWS V14.01,2013-04-04 22:07:00,
2013-04-04 17:12:00,47.9,30.2,30.07,NW,321,3.0,3.0,50,0.00,,CLR,0.00,VWS V14.01,2013-04-04 22:12:00,
2013-04-04 17:17:00,47.6,29.9,30.07,WNW,298,9.0,11.0,50,0.00,,CLR,0.00,VWS V14.01,2013-04-04 22:17:00,
2013-04-04 17:22:00,47.5,30.8,30.06,NW,326,6.0,8.0,52,0.00,,CLR,0.00,VWS V14.01,2013-04-04 22:22:00,
2013-04-04 17:28:00,47.3,29.6,30.06,NW,316,5.0,9.0,50,0.00,,CLR,0.00,VWS V14.01,2013-04-04 22:28:00,
2013-04-04 17:33:00,47.1,29.9,30.07,NW,321,2.0,4.0,51,0.00,,CLR,0.00,VWS V14.01,2013-04-04 22:33:00,
2013-04-04 17:38:00,47.2,29.5,30.07,NNE,18,6.0,6.0,50,0.00,,CLR,0.00,VWS V14.01,2013-04-04 22:38:00,
2013-04-04 17:43:00,47.3,30.1,30.07,NNW,329,7.0,7.0,51,0.00,,CLR,0.00,VWS V14.01,2013-04-04 22:43:00,
2013-04-04 17:48:00,47.3,29.6,30.07,NW,319,0.0,5.0,50,0.00,,CLR,0.00,VWS V14.01,2013-04-04 22:48:00,
2013-04-04 17:53:00,47.1,30.4,30.07,WNW,298,0.0,3.0,52,0.00,,CLR,0.00,VWS V14.01,2013-04-04 22:53:00,
2013-04-04 17:58:00,46.8,30.1,30.07,West,277,0.0,4.0,52,0.00,,CLR,0.00,VWS V14.01,2013-04-04 22:58:00,
2013-04-04 18:04:00,46.5,29.8,30.07,NW,324,6.0,6.0,52,0.00,,CLR,0.00,VWS V14.01,2013-04-04 23:04:00,
2013-04-04 18:09:00,46.4,29.8,30.07,North,360,1.0,3.0,52,0.00,,CLR,0.00,VWS V14.01,2013-04-04 23:09:00,
2013-04-04 18:15:00,46.1,29.5,30.08,West,264,0.0,7.0,52,0.00,,CLR,0.00,VWS V14.01,2013-04-04 23:15:00,
2013-04-04 18:20:00,45.7,29.6,30.08,NW,308,4.0,6.0,53,0.00,,CLR,0.00,VWS V14.01,2013-04-04 23:20:00,
2013-04-04 18:26:00,45.3,29.2,30.08,WNW,298,1.0,3.0,53,0.00,,CLR,0.00,VWS V14.01,2013-04-04 23:26:00,
2013-04-04 18:31:00,45.0,30.3,30.08,NNW,338,2.0,7.0,56,0.00,,CLR,0.00,VWS V14.01,2013-04-04 23:31:00,
2013-04-04 18:36:00,44.7,30.0,30.08,WNW,293,0.0,2.0,56,0.00,,CLR,0.00,VWS V14.01,2013-04-04 23:36:00,
2013-04-04 18:41:00,44.4,29.3,30.08,WNW,282,0.0,5.0,55,0.00,,CLR,0.00,VWS V14.01,2013-04-04 23:41:00,
2013-04-04 18:46:00,44.3,29.6,30.08,NNW,331,0.0,4.0,56,0.00,,CLR,0.00,VWS V14.01,2013-04-04 23:46:00,
2013-04-04 18:51:00,44.2,30.8,30.08,NW,323,0.0,1.0,59,0.00,,CLR,0.00,VWS V14.01,2013-04-04 23:51:00,
2013-04-04 18:57:00,44.0,30.6,30.08,NW,326,2.0,3.0,59,0.00,,CLR,0.00,VWS V14.01,2013-04-04 23:57:00,
2013-04-04 19:03:00,43.6,30.6,30.08,NW,325,3.0,6.0,60,0.00,,CLR,0.00,VWS V14.01,2013-04-05 00:03:00,
2013-04-04 19:08:00,43.2,30.3,30.08,NW,305,0.0,5.0,60,0.00,,CLR,0.00,VWS V14.01,2013-04-05 00:08:00,
2013-04-04 19:13:00,42.8,30.3,30.08,NNW,342,0.0,3.0,61,0.00,,CLR,0.00,VWS V14.01,2013-04-05 00:13:00,
2013-04-04 19:19:00,42.4,30.3,30.08,NW,315,0.0,0.0,62,0.00,,CLR,0.00,VWS V14.01,2013-04-05 00:19:00,
2013-04-04 19:25:00,42.0,30.3,30.08,West,275,0.0,3.0,63,0.00,,CLR,0.00,VWS V14.01,2013-04-05 00:25:00,
2013-04-04 19:30:00,41.6,30.0,30.09,West,276,0.0,4.0,63,0.00,,CLR,0.00,VWS V14.01,2013-04-05 00:30:00,
2013-04-04 19:35:00,41.3,30.4,30.08,NW,311,0.0,1.0,65,0.00,,CLR,0.00,VWS V14.01,2013-04-05 00:35:00,
2013-04-04 19:40:00,40.9,31.5,30.09,NW,304,0.0,2.0,69,0.00,,CLR,0.00,VWS V14.01,2013-04-05 00:40:00,
2013-04-04 19:46:00,40.5,30.0,30.09,NW,312,0.0,2.0,66,0.00,,CLR,0.00,VWS V14.01,2013-04-05 00:46:00,
2013-04-04 19:51:00,40.1,30.0,30.09,WNW,301,0.0,0.0,67,0.00,,CLR,0.00,VWS V14.01,2013-04-05 00:51:00,
2013-04-04 19:56:00,39.8,29.4,30.09,NW,321,0.0,0.0,66,0.00,,CLR,0.00,VWS V14.01,2013-04-05 00:56:00,
2013-04-04 20:01:00,39.5,29.1,30.09,NW,313,0.0,0.0,66,0.00,,CLR,0.00,VWS V14.01,2013-04-05 01:01:00,
2013-04-04 20:06:00,39.2,28.8,30.09,NW,313,0.0,0.0,66,0.00,,CLR,0.00,VWS V14.01,2013-04-05 01:06:00,
2013-04-04 20:11:00,38.9,28.5,30.09,NNW,327,0.0,1.0,66,0.00,,CLR,0.00,VWS V14.01,2013-04-05 01:11:00,
2013-04-04 20:16:00,38.7,28.7,30.09,WNW,299,0.0,0.0,67,0.00,,CLR,0.00,VWS V14.01,2013-04-05 01:16:00,
2013-04-04 20:21:00,38.4,28.8,30.10,NW,307,0.0,1.0,68,0.00,,CLR,0.00,VWS V14.01,2013-04-05 01:21:00,
2013-04-04 20:26:00,38.1,28.1,30.10,NW,315,0.0,2.0,67,0.00,,CLR,0.00,VWS V14.01,2013-04-05 01:26:00,
2013-04-04 20:31:00,37.9,27.9,30.10,NW,315,0.0,0.0,67,0.00,,CLR,0.00,VWS V14.01,2013-04-05 01:31:00,
2013-04-04 20:36:00,37.7,28.1,30.10,NW,316,0.0,0.0,68,0.00,,CLR,0.00,VWS V14.01,2013-04-05 01:36:00,
2013-04-04 20:41:00,37.5,27.9,30.10,NW,315,0.0,2.0,68,0.00,,CLR,0.00,VWS V14.01,2013-04-05 01:41:00,
2013-04-04 20:46:00,37.4,27.8,30.10,NW,311,0.0,0.0,68,0.00,,CLR,0.00,VWS V14.01,2013-04-05 01:46:00,
2013-04-04 20:51:00,37.3,28.1,30.10,NW,311,0.0,0.0,69,0.00,,CLR,0.00,VWS V14.01,2013-04-05 01:51:00,
2013-04-04 20:57:00,37.0,28.1,30.11,NW,321,0.0,2.0,70,0.00,,CLR,0.00,VWS V14.01,2013-04-05 01:57:00,
2013-04-04 21:02:00,36.8,28.3,30.11,NW,315,0.0,0.0,71,0.00,,CLR,0.00,VWS V14.01,2013-04-05 02:02:00,
2013-04-04 21:07:00,36.6,28.4,30.11,NNW,330,0.0,1.0,72,0.00,,CLR,0.00,VWS V14.01,2013-04-05 02:07:00,
2013-04-04 21:13:00,36.3,28.1,30.12,NNW,330,0.0,0.0,72,0.00,,CLR,0.00,VWS V14.01,2013-04-05 02:13:00,
2013-04-04 21:18:00,36.1,28.3,30.12,NNW,330,0.0,1.0,73,0.00,,CLR,0.00,VWS V14.01,2013-04-05 02:18:00,
2013-04-04 21:24:00,35.9,28.1,30.12,West,277,0.0,0.0,73,0.00,,CLR,0.00,VWS V14.01,2013-04-05 02:24:00,
2013-04-04 21:30:00,35.6,27.8,30.13,NW,313,0.0,2.0,73,0.00,,CLR,0.00,VWS V14.01,2013-04-05 02:30:00,
2013-04-04 21:35:00,35.5,27.7,30.13,WNW,300,0.0,1.0,73,0.00,,CLR,0.00,VWS V14.01,2013-04-05 02:35:00,
2013-04-04 21:40:00,35.4,27.6,30.13,NW,323,0.0,3.0,73,0.00,,CLR,0.00,VWS V14.01,2013-04-05 02:40:00,
2013-04-04 21:45:00,35.5,27.4,30.13,NW,315,0.0,2.0,72,0.00,,CLR,0.00,VWS V14.01,2013-04-05 02:45:00,
2013-04-04 21:50:00,35.4,27.3,30.13,NW,326,0.0,0.0,72,0.00,,CLR,0.00,VWS V14.01,2013-04-05 02:50:00,
2013-04-04 21:55:00,35.3,27.2,30.13,NW,317,4.0,4.0,72,0.00,,CLR,0.00,VWS V14.01,2013-04-05 02:55:00,
2013-04-04 22:01:00,35.2,27.1,30.13,NW,312,0.0,3.0,72,0.00,,CLR,0.00,VWS V14.01,2013-04-05 03:01:00,
2013-04-04 22:07:00,35.1,27.0,30.13,NW,315,0.0,0.0,72,0.00,,CLR,0.00,VWS V14.01,2013-04-05 03:07:00,
2013-04-04 22:13:00,34.9,27.1,30.13,NW,315,0.0,0.0,73,0.00,,CLR,0.00,VWS V14.01,2013-04-05 03:13:00,
2013-04-04 22:18:00,34.7,27.0,30.13,NW,326,0.0,4.0,73,0.00,,CLR,0.00,VWS V14.01,2013-04-05 03:18:00,
2013-04-04 22:23:00,34.5,26.8,30.13,NW,320,0.0,0.0,73,0.00,,CLR,0.00,VWS V14.01,2013-04-05 03:23:00,
2013-04-04 22:28:00,34.3,26.9,30.14,NW,320,0.0,0.0,74,0.00,,CLR,0.00,VWS V14.01,2013-04-05 03:28:00,
2013-04-04 22:34:00,33.9,26.5,30.14,NW,321,0.0,4.0,74,0.00,,CLR,0.00,VWS V14.01,2013-04-05 03:34:00,
2013-04-04 22:39:00,33.8,26.7,30.14,NW,317,0.0,0.0,75,0.00,,CLR,0.00,VWS V14.01,2013-04-05 03:39:00,
2013-04-04 22:45:00,33.7,26.6,30.14,NW,314,0.0,2.0,75,0.00,,CLR,0.00,VWS V14.01,2013-04-05 03:45:00,
2013-04-04 22:50:00,33.6,26.5,30.14,NNW,330,0.0,0.0,75,0.00,,CLR,0.00,VWS V14.01,2013-04-05 03:50:00,
2013-04-04 22:56:00,33.4,26.3,30.14,NNW,330,0.0,0.0,75,0.00,,CLR,0.00,VWS V14.01,2013-04-05 03:56:00,
2013-04-04 23:01:00,33.2,26.5,30.14,NNW,330,0.0,0.0,76,0.00,,CLR,0.00,VWS V14.01,2013-04-05 04:01:00,
2013-04-04 23:02:00,33.2,26.5,30.14,NNW,330,0.0,0.0,76,0.00,,CLR,0.00,VWS V14.01,2013-04-05 04:02:00,
2013-04-04 23:05:00,33.0,26.3,30.14,NNW,330,0.0,0.0,76,0.00,,CLR,0.00,VWS V14.01,2013-04-05 04:05:00,
2013-04-04 23:09:00,32.9,26.2,30.14,NW,319,0.0,1.0,76,0.00,,CLR,0.00,VWS V14.01,2013-04-05 04:09:00,
2013-04-04 23:15:00,32.8,25.8,30.15,NNW,327,0.0,1.0,75,0.00,,CLR,0.00,VWS V14.01,2013-04-05 04:15:00,
2013-04-04 23:20:00,32.8,25.8,30.15,NW,315,2.0,3.0,75,0.00,,CLR,0.00,VWS V14.01,2013-04-05 04:20:00,
2013-04-04 23:26:00,32.9,25.9,30.15,NW,311,0.0,0.0,75,0.00,,CLR,0.00,VWS V14.01,2013-04-05 04:26:00,
2013-04-04 23:31:00,32.7,25.3,30.15,NW,324,2.0,2.0,74,0.00,,CLR,0.00,VWS V14.01,2013-04-05 04:31:00,
2013-04-04 23:37:00,32.6,25.6,30.15,NW,311,1.0,2.0,75,0.00,,CLR,0.00,VWS V14.01,2013-04-05 04:37:00,
2013-04-04 23:42:00,32.6,25.6,30.15,NW,311,0.0,0.0,75,0.00,,CLR,0.00,VWS V14.01,2013-04-05 04:42:00,
2013-04-04 23:47:00,32.3,25.6,30.15,NW,311,0.0,0.0,76,0.00,,CLR,0.00,VWS V14.01,2013-04-05 04:47:00,
2013-04-04 23:52:00,32.1,25.7,30.15,NW,311,1.0,1.0,77,0.00,,CLR,0.00,VWS V14.01,2013-04-05 04:52:00,
2013-04-04 23:58:00,31.8,25.4,30.15,NW,321,1.0,3.0,77,0.00,,CLR,0.00,VWS V14.01,2013-04-05 04:58:00,